Theta_e
308 308 308 308 308 308 309 309 309 309 309 309 309 309 309 310 310 310 311 311 312 312 312 312 312 312 312 311 311 311 310 309 310 311 312 314 309 312 317 317 317 315 312 311 310 313 313 314 316 317 317 316 316 317 317 315 314 314 316 315 314 314 313 315 317 317 317 318 319 319 320 319 319 322 326 324 328 339 345 347 348 348 348 348 349 349 348 346
308 308 308 308 308 308 308 308 308 309 309 309 309 309 309 309 310 311 311 311 311 311 312 312 312 312 312 312 311 310 309 310 312 312 315 312 308 312 316 317 317 316 314 311 310 312 314 314 315 317 316 317 317 318 317 315 314 314 316 316 314 314 315 315 317 317 317 317 318 319 319 320 319 322 327 324 328 339 344 346 349 349 348 348 349 349 347 346
308 307 308 308 308 308 308 308 308 309 309 309 309 309 309 309 309 310 310 311 311 311 312 312 312 311 311 311 310 309 310 312 314 317 319 315 314 311 313 317 317 315 314 310 309 313 315 315 315 316 317 318 318 317 316 314 314 315 315 316 315 316 316 316 317 317 317 318 318 319 318 318 319 320 326 326 330 338 342 346 350 351 349 349 349 348 347 346
307 307 307 308 307 308 308 308 308 308 309 309 309 309 309 309 309 309 310 311 310 311 312 312 311 311 312 310 309 309 310 316 322 322 318 314 317 313 311 316 316 314 312 309 309 312 315 316 315 315 317 319 319 317 316 314 314 314 315 315 315 316 316 317 317 317 317 318 318 318 319 318 318 318 321 326 333 337 339 343 348 351 350 349 348 348 346 344
307 307 307 307 307 307 307 308 308 308 308 308 308 309 309 309 309 309 310 310 310 311 311 311 311 311 311 310 309 310 313 322 324 320 315 312 313 312 312 315 316 313 308 308 309 312 314 315 316 316 318 320 319 317 316 314 313 314 315 315 315 315 316 316 316 317 317 318 318 318 319 318 318 319 319 323 333 337 336 339 345 346 346 348 348 348 346 342
306 306 306 307 306 307 308 307 308 308 308 308 308 308 309 309 309 309 310 310 310 310 310 311 311 311 311 309 310 311 317 322 319 318 316 312 311 311 313 315 315 312 307 307 310 312 313 314 316 317 318 319 318 318 316 315 314 313 313 314 316 316 316 316 316 317 318 318 317 317 318 318 317 319 318 319 331 336 334 337 341 341 342 346 349 350 347 343
306 306 306 306 306 306 307 307 307 307 307 308 308 308 309 308 309 309 309 309 309 309 310 311 310 311 310 310 313 314 317 320 317 318 317 314 311 310 312 315 315 311 308 309 311 311 312 314 316 317 319 318 317 318 316 315 315 313 313 314 316 316 316 316 317 316 318 318 317 318 317 317 316 318 318 317 328 335 334 336 339 340 342 346 348 351 350 345
306 306 306 306 305 306 306 306 307 307 307 307 307 308 308 307 308 308 308 308 308 309 309 310 310 310 310 311 316 317 317 319 318 318 316 314 312 309 309 312 311 308 309 311 310 310 312 315 316 317 317 317 318 317 316 316 314 313 313 314 315 316 316 316 317 316 317 317 318 317 316 317 317 317 318 316 325 333 334 336 339 340 343 345 349 352 351 347
305 305 305 305 305 305 306 306 306 307 307 307 307 307 307 307 307 307 308 308 308 308 309 310 310 310 310 312 316 321 322 319 319 317 314 315 313 309 308 309 307 307 310 312 311 311 313 315 316 317 317 316 317 316 316 315 313 314 314 314 315 316 316 317 316 316 316 317 318 317 316 316 317 317 317 317 320 331 334 334 339 342 344 347 350 353 351 347
305 305 305 305 305 305 305 305 306 306 306 306 306 306 306 306 305 305 307 308 308 308 308 309 310 310 311 313 316 322 322 318 321 318 315 316 313 309 308 308 307 307 311 313 313 314 314 315 315 315 316 316 315 315 315 314 313 313 314 314 315 315 316 316 316 317 316 318 318 316 316 316 317 316 317 317 318 328 333 334 338 342 345 348 349 352 352 347
304 304 304 305 304 305 304 305 306 306 306 305 306 306 306 305 303 302 304 307 308 308 308 309 310 310 312 315 316 319 316 316 321 320 319 317 314 311 309 310 309 309 311 312 313 314 315 316 315 313 314 314 314 314 314 314 313 314 314 314 314 315 315 316 315 316 316 317 317 317 316 316 316 316 316 318 317 322 329 333 337 341 344 347 349 350 351 349
304 304 304 304 304 304 304 305 305 305 305 305 305 306 305 304 302 302 302 305 308 307 308 309 310 311 313 316 317 316 308 312 316 317 319 317 315 314 312 312 310 310 311 310 313 313 314 315 314 313 313 313 313 312 313 314 313 313 314 313 313 314 314 315 315 316 317 316 318 317 314 314 315 315 317 318 317 318 324 332 337 343 346 347 349 349 349 346
304 304 304 304 304 304 304 304 304 304 305 305 305 304 303 302 301 303 303 304 306 307 307 309 310 311 315 318 317 311 309 312 311 313 316 316 316 315 313 313 312 311 311 312 313 314 315 315 313 313 313 313 312 312 313 314 314 313 314 313 313 313 313 315 316 316 316 316 318 315 312 314 314 315 317 317 318 316 324 334 340 344 347 347 348 348 346 343
304 304 304 304 304 304 304 304 304 304 304 303 303 302 301 301 302 305 305 304 306 307 308 309 310 312 316 319 317 312 315 315 315 315 316 318 318 315 314 315 314 314 313 313 314 315 316 315 314 314 312 313 313 313 314 313 314 314 313 314 313 312 312 316 316 316 316 316 318 315 311 315 315 315 317 316 318 315 323 337 342 344 347 345 346 346 344 341
303 303 304 304 304 304 304 304 303 303 303 302 301 300 300 301 306 308 307 306 307 308 309 310 310 313 318 320 318 317 318 319 319 317 316 318 319 317 316 315 316 315 315 315 315 315 315 315 314 313 313 313 313 313 313 313 314 313 312 313 313 311 312 315 316 316 315 315 317 314 311 315 315 315 316 316 318 314 324 337 342 343 345 344 345 345 342 338
303 303 303 303 303 304 304 303 303 302 302 301 300 299 299 302 308 310 309 308 309 309 310 312 313 314 319 321 318 317 318 321 321 317 316 315 317 319 317 316 316 316 317 316 315 315 315 315 314 314 313 313 313 313 313 313 314 315 314 313 314 312 311 313 314 315 316 315 316 315 312 315 315 315 315 315 316 315 327 340 342 343 344 344 344 343 340 337
304 303 303 303 303 303 303 303 303 301 301 299 298 298 298 303 310 310 310 310 311 311 310 314 315 316 320 320 318 319 318 319 319 317 316 313 314 318 318 316 315 315 315 315 315 315 315 315 315 315 313 313 313 312 313 313 315 318 316 314 314 312 311 311 313 315 315 314 315 314 314 315 316 317 315 316 316 315 331 342 343 344 345 345 344 343 341 339
304 304 304 303 303 303 302 302 301 300 300 298 298 298 298 305 310 310 311 312 312 313 313 315 315 317 320 319 319 321 317 318 319 318 316 314 314 315 317 317 315 315 315 314 314 314 314 315 314 315 315 314 314 312 313 313 314 317 317 316 314 312 312 311 312 314 314 314 315 314 314 314 316 317 315 316 315 316 335 345 345 346 346 345 345 344 341 340
304 304 304 303 303 303 302 301 301 301 300 299 297 297 302 310 314 312 312 313 315 320 322 320 318 317 316 318 319 318 317 318 318 317 315 314 314 314 316 317 316 315 314 314 314 313 314 315 315 315 315 314 313 312 311 313 314 315 315 315 313 311 311 311 313 314 314 313 314 314 313 314 315 316 316 318 316 323 338 346 345 345 346 344 345 344 339 336
304 303 303 304 303 302 301 300 301 301 301 301 300 302 310 317 319 319 315 314 317 322 321 319 319 318 315 316 316 315 317 317 316 316 315 313 313 315 316 317 315 315 314 314 315 314 314 316 315 314 313 314 315 314 314 313 314 315 314 313 312 311 311 313 314 314 315 314 313 315 314 314 314 316 318 317 321 334 341 344 345 346 346 344 344 342 337 335
303 303 303 303 303 302 301 300 301 301 302 302 301 306 313 311 311 315 316 315 317 318 317 316 318 318 318 317 316 316 315 315 315 315 315 314 315 316 316 316 316 315 314 313 314 315 315 315 315 313 313 315 316 318 319 317 316 317 315 313 311 311 311 314 315 314 315 315 314 316 315 315 315 317 318 316 325 339 345 344 345 346 344 344 343 338 335 335
303 303 304 303 303 302 300 300 301 301 301 301 303 307 309 306 306 308 309 310 313 315 316 315 314 315 316 316 315 315 313 314 315 315 316 316 316 317 316 316 315 314 314 313 314 315 314 313 313 314 314 316 316 318 320 320 319 318 316 314 313 313 313 314 317 315 315 317 315 314 316 317 319 318 318 319 323 335 343 344 343 343 344 343 341 336 335 335
303 303 303 304 303 301 301 300 300 301 302 303 305 307 308 307 307 308 310 310 310 310 311 311 313 313 313 314 314 314 313 314 314 315 315 317 317 316 315 315 314 313 313 313 314 315 315 313 312 313 313 316 318 318 320 321 321 319 318 315 313 314 313 314 317 317 317 322 321 317 317 322 323 318 319 323 323 329 336 341 340 339 342 343 340 335 335 335
303 303 303 303 303 303 302 300 301 305 308 308 307 309 310 310 309 309 312 313 311 311 311 310 311 312 311 312 313 314 314 314 315 316 316 316 317 315 314 313 312 311 311 312 313 313 313 312 311 312 312 315 317 319 322 321 319 319 319 316 314 315 314 315 317 322 328 331 332 325 319 326 327 318 319 322 323 324 330 339 340 336 340 341 338 336 335 334
303 303 303 303 303 304 301 302 308 309 307 308 310 311 310 313 312 311 313 317 316 313 313 313 311 311 312 312 313 313 314 314 314 316 316 316 316 316 314 313 311 311 311 311 312 311 311 313 314 313 312 313 315 318 320 320 320 321 323 319 316 316 316 317 317 323 327 324 329 324 315 324 329 320 321 322 321 319 326 338 340 335 338 338 337 337 336 334
303 303 303 303 303 303 302 306 310 306 303 306 309 309 310 312 312 311 315 321 322 318 313 314 314 313 312 312 312 313 314 315 314 315 316 316 316 316 313 312 312 311 311 311 312 311 311 312 314 314 315 314 314 315 317 319 320 320 323 321 318 318 317 318 317 318 319 319 327 325 317 322 327 322 322 322 321 317 326 337 339 335 338 337 336 337 336 335
303 303 304 303 303 303 305 307 306 304 305 306 306 308 310 310 309 311 320 324 325 322 315 313 314 313 312 313 313 314 316 316 314 314 315 316 317 316 314 312 311 311 311 311 311 312 312 314 314 315 317 316 314 315 317 320 320 319 322 319 318 317 315 318 318 314 317 320 323 322 318 319 321 324 324 322 321 320 329 338 338 336 338 336 336 336 335 335
303 303 303 303 303 303 304 304 304 307 308 306 306 309 310 310 310 313 322 326 324 317 315 315 315 314 313 315 314 314 316 316 315 315 314 316 317 315 314 313 312 311 312 312 312 314 315 316 316 316 317 316 315 315 318 320 318 319 320 318 318 315 314 316 314 314 318 318 316 319 320 317 319 325 325 322 319 321 334 340 336 337 338 336 335 335 336 335
303 303 303 303 302 303 305 303 304 309 310 309 310 311 310 309 312 315 322 327 321 312 315 316 317 317 316 317 316 315 316 315 315 316 314 316 317 316 314 314 313 312 312 312 313 315 317 318 317 316 315 315 316 317 318 317 317 319 318 317 316 314 315 315 313 317 320 319 317 319 320 317 321 326 322 320 319 318 333 339 336 337 336 335 335 334 336 335
302 301 302 302 302 304 307 306 307 309 310 312 312 311 309 310 315 319 322 325 316 311 315 316 317 319 318 317 317 317 317 316 315 315 314 316 316 316 315 314 313 313 313 314 313 313 315 316 317 316 315 316 316 317 316 316 316 317 315 315 314 314 315 315 316 317 316 320 321 320 320 317 322 330 326 324 325 323 331 337 336 337 335 335 335 334 337 336
301 301 302 302 303 304 306 307 308 308 310 313 311 309 310 312 316 320 322 320 312 312 314 315 317 318 318 318 318 318 317 317 316 314 315 316 316 316 316 317 315 314 315 315 314 314 313 315 316 315 316 316 316 315 315 315 315 314 315 315 313 315 315 312 314 313 314 322 323 318 320 317 321 331 330 329 334 330 329 335 337 337 336 336 335 336 338 337
301 301 302 302 303 303 305 306 305 308 312 313 311 311 312 312 315 319 320 316 314 316 312 313 316 315 317 317 318 318 318 318 317 315 315 315 318 317 316 317 316 314 316 316 315 315 315 315 315 315 317 316 314 315 314 314 314 313 314 313 312 315 315 313 314 314 316 322 322 317 319 319 323 329 329 333 338 336 332 335 337 337 337 337 337 338 338 337
302 302 303 304 304 304 305 303 304 311 314 313 313 313 312 313 317 318 316 313 315 315 310 312 314 314 316 317 318 318 317 318 316 315 317 316 318 318 315 315 315 314 317 318 316 315 315 316 313 314 317 315 315 314 312 314 315 313 312 313 314 315 316 317 317 315 317 317 317 316 316 322 328 328 329 334 335 336 336 336 336 337 337 337 337 337 337 337
303 303 306 307 306 305 305 304 309 313 314 313 313 313 313 315 318 317 314 312 313 312 311 313 312 312 314 317 322 321 316 317 316 314 318 319 319 320 317 314 314 314 315 317 316 315 316 317 317 314 314 316 316 313 313 315 314 314 315 315 316 317 318 318 316 316 319 320 321 320 317 326 334 329 328 333 331 333 336 335 336 337 335 337 337 336 337 336
303 307 311 310 307 307 306 306 311 313 313 314 313 312 315 316 316 315 315 313 311 312 312 311 311 312 312 313 319 320 316 319 318 315 319 320 318 319 319 315 313 314 314 316 316 313 313 317 319 314 314 316 314 314 314 313 315 321 317 312 317 323 319 317 321 325 324 322 326 329 326 328 334 330 328 332 331 333 335 333 335 335 334 335 336 337 337 336
304 310 315 313 311 311 309 309 312 312 314 316 314 313 314 313 312 312 312 310 310 310 309 310 310 312 312 313 314 316 318 322 323 322 324 322 319 318 317 316 315 312 314 317 318 315 313 318 319 313 314 315 312 317 313 311 323 331 320 312 317 323 320 319 325 329 326 321 323 331 331 327 328 328 328 332 333 333 335 334 333 333 334 334 335 336 336 336
305 310 315 315 315 316 314 313 314 314 314 315 315 316 312 309 309 309 308 308 309 308 308 310 311 312 314 314 314 315 317 320 320 319 321 323 325 322 317 316 316 313 313 315 317 319 317 318 321 313 314 316 312 316 315 311 325 327 317 315 316 315 319 322 322 320 320 320 323 330 331 327 328 330 329 332 333 333 333 333 333 333 333 333 333 335 334 334
306 310 314 315 315 316 316 315 314 315 314 313 315 316 311 308 309 308 307 307 306 306 306 308 310 312 313 314 315 313 312 319 324 321 320 324 327 325 320 319 318 314 313 312 315 322 319 316 322 317 314 318 313 312 314 313 317 319 318 321 318 316 319 319 318 320 322 323 323 329 330 327 330 330 331 333 333 333 332 332 332 333 333 334 334 334 333 334
308 312 316 315 313 313 314 313 312 314 315 314 313 313 309 308 308 307 307 306 305 306 306 308 310 311 313 313 314 312 310 321 331 330 329 331 329 325 321 319 320 317 316 314 313 319 319 318 326 324 316 319 317 314 317 317 315 315 318 320 318 321 324 323 322 322 326 327 325 328 333 334 333 331 332 335 332 332 332 331 332 331 332 334 334 335 334 334
312 316 318 315 312 312 312 312 314 315 315 315 313 310 307 306 306 306 307 306 306 307 307 308 309 311 314 312 311 312 309 314 326 328 329 329 326 326 322 318 319 319 317 316 315 317 318 320 326 327 319 318 317 315 319 319 316 315 316 315 317 322 323 327 327 319 322 331 332 332 334 335 334 330 331 334 331 332 332 331 332 331 330 331 331 331 333 333
313 316 317 313 312 312 313 314 316 316 316 315 313 310 309 308 307 307 307 307 306 306 307 306 308 311 312 311 310 311 309 310 318 324 327 327 326 330 327 318 318 319 317 320 320 318 319 322 328 327 321 320 320 317 316 318 317 317 319 317 320 325 321 320 323 319 321 331 335 335 334 334 335 329 329 332 330 330 331 330 332 331 329 330 329 329 331 331
313 316 316 313 312 313 314 316 316 315 316 315 313 311 311 310 310 308 308 308 307 307 308 308 309 310 310 311 310 310 311 309 315 326 330 329 328 327 323 319 317 317 319 322 321 320 322 324 326 323 319 319 319 317 318 319 316 315 319 317 319 326 324 321 326 329 327 329 331 334 334 334 335 329 327 330 329 328 329 329 331 331 329 330 329 329 329 329
315 317 315 312 312 312 315 317 317 316 315 314 312 311 311 311 310 309 308 308 307 307 309 308 309 309 309 310 309 309 311 309 314 327 329 324 323 321 319 319 318 317 321 324 324 323 324 323 323 324 325 324 321 319 320 318 317 318 319 318 316 320 324 327 332 333 330 329 329 333 335 333 331 329 327 328 328 328 329 329 330 330 329 329 329 329 330 330
313 315 315 313 312 312 315 316 317 317 315 313 311 310 311 310 310 309 309 309 308 308 309 309 309 309 309 309 309 309 311 310 314 322 323 320 320 320 319 319 319 319 321 322 323 321 322 326 330 333 334 329 326 328 329 323 320 319 320 319 317 319 322 325 328 328 328 328 327 333 336 331 329 328 326 326 327 328 329 328 327 329 329 327 327 327 329 330
312 315 315 313 312 313 315 314 314 315 315 314 313 311 310 310 310 310 309 309 309 308 308 309 308 309 308 309 310 309 310 311 313 318 321 320 320 318 318 319 320 319 321 325 326 320 320 325 330 334 336 332 325 327 332 329 322 320 320 317 319 323 323 323 326 327 327 327 328 333 333 328 327 328 327 328 328 327 329 328 325 326 327 325 325 324 326 327
314 316 314 313 314 314 314 313 313 314 314 314 314 313 311 311 310 309 309 309 309 309 309 309 308 309 309 310 311 311 310 309 312 316 319 319 320 319 318 320 320 318 321 328 328 321 321 326 328 330 334 334 327 322 323 324 321 320 320 318 322 328 327 328 329 324 325 332 332 330 328 327 328 328 328 329 327 326 329 328 325 324 324 323 323 322 323 325
314 314 311 311 314 314 314 314 313 313 313 313 314 313 311 311 310 310 310 310 309 309 309 310 309 311 311 312 314 315 313 312 314 317 318 318 318 317 316 319 319 320 324 325 323 323 324 326 329 328 326 325 323 319 318 320 318 318 320 322 325 328 330 334 330 323 331 340 335 327 326 328 329 328 327 328 327 326 327 326 324 323 322 321 320 318 318 318
313 312 311 310 311 313 314 314 313 313 312 312 313 312 312 312 310 311 312 310 309 309 311 313 311 311 311 313 316 317 317 319 319 320 321 320 317 317 320 319 316 319 324 322 321 325 326 325 328 326 323 321 318 317 322 325 321 317 319 324 326 328 331 334 332 329 338 341 333 328 329 329 329 328 327 327 327 326 325 324 323 321 320 319 317 315 313 311
311 312 312 312 312 313 313 312 313 314 312 312 313 312 312 312 310 310 310 310 311 310 311 313 311 310 311 312 314 315 317 321 320 319 321 320 318 321 324 324 321 321 321 319 319 322 326 328 325 320 320 321 317 317 322 325 322 318 318 321 324 327 329 331 331 331 333 333 329 329 329 326 325 326 327 327 327 326 323 322 321 319 318 317 315 312 311 309
311 312 312 313 312 311 311 312 313 314 312 311 312 311 309 310 310 309 308 310 312 311 309 310 309 310 310 310 312 312 313 315 316 317 319 319 320 322 321 323 326 323 321 322 322 321 324 327 323 318 319 320 317 316 318 319 319 317 319 320 321 325 328 329 331 331 329 328 325 325 327 325 323 324 324 325 326 324 321 319 319 316 315 314 312 311 310 309
309 310 310 313 313 311 310 310 312 313 311 310 311 310 308 308 308 309 309 309 310 310 308 307 308 310 310 310 311 311 309 309 311 313 313 314 317 318 316 319 323 323 324 326 326 323 324 325 322 320 322 322 320 319 318 317 317 319 322 320 319 324 328 328 328 329 328 326 323 324 325 324 323 324 323 323 325 325 321 318 316 314 313 312 311 310 309 308
306 309 310 312 314 313 309 308 309 310 309 309 310 309 308 308 307 308 311 311 308 308 308 307 308 310 310 310 310 308 307 307 308 309 309 311 312 311 312 315 317 321 326 329 328 325 324 326 323 321 323 323 321 321 321 321 322 323 322 318 316 321 326 325 326 327 325 323 323 325 324 321 322 324 323 322 321 319 316 315 314 312 310 309 308 307 307 306
Wind_Speed
12 12 12 12 11 11 11 11 11 11 11 11 12 12 12 12 12 12 12 12 12 13 14 14 15 15 15 16 16 17 20 22 20 15 14 14 11 7 5 5 6 6 7 8 9 7 6 9 10 13 11 8 5 4 7 7 4 4 3 4 5 6 7 8 9 5 3 3 3 5 4 5 5 2 2 3 10 15 16 13 14 16 15 17 23 28 30 30
11 11 12 12 12 12 12 12 12 12 12 12 12 12 12 12 12 12 12 12 12 13 13 14 14 15 15 15 15 16 19 21 19 18 19 14 11 13 11 11 12 9 6 10 12 11 8 7 9 10 6 4 5 4 5 4 5 4 3 4 5 6 9 10 11 10 7 4 5 6 2 2 4 3 1 1 7 15 15 12 15 19 18 19 25 27 27 28
12 12 12 12 12 12 12 12 12 12 12 12 12 12 12 12 12 12 13 13 13 12 13 13 14 14 14 15 14 15 18 18 13 13 10 6 11 19 17 15 15 12 10 13 14 13 11 10 11 9 5 5 5 5 5 4 4 5 4 4 5 8 11 12 13 13 10 3 3 4 3 2 1 0 2 2 8 14 13 10 13 17 18 18 21 24 24 22
12 12 12 13 12 12 12 12 12 12 12 12 12 12 12 12 12 13 13 13 13 13 13 13 13 13 14 14 13 14 15 11 5 7 3 3 5 14 20 18 15 12 12 14 14 14 15 13 12 10 7 5 5 6 6 5 4 4 5 6 8 8 10 14 13 13 10 5 5 2 4 5 4 3 2 4 8 9 10 12 14 16 18 19 19 20 19 15
13 13 13 13 13 13 13 13 13 13 13 13 13 12 12 12 12 13 13 13 13 13 13 13 13 13 13 13 11 11 9 3 0 2 1 3 1 7 16 19 16 13 11 14 13 13 15 13 10 9 7 5 5 5 6 7 5 4 6 9 11 10 12 15 12 10 8 6 7 6 6 5 6 5 5 2 4 5 8 15 17 16 15 17 18 17 16 13
13 13 13 13 13 13 13 13 13 13 13 13 13 13 13 13 12 13 13 13 13 13 13 13 13 13 13 13 9 6 3 1 4 4 1 2 3 4 11 16 16 13 10 13 12 10 10 9 9 7 5 5 6 6 7 8 7 6 6 8 11 11 12 13 12 7 5 5 6 5 7 6 5 3 5 4 4 7 10 17 19 17 15 16 16 15 15 14
13 13 13 13 13 13 13 13 13 13 13 12 13 13 13 13 12 12 13 13 12 13 13 13 13 12 13 14 6 1 1 6 11 7 3 1 3 5 9 12 14 12 11 12 10 8 7 8 9 7 5 6 7 8 9 9 9 8 7 8 9 10 12 12 12 6 1 2 1 2 7 7 3 2 5 6 4 12 14 16 18 17 15 16 15 13 15 15
13 13 13 13 14 14 14 14 14 14 13 13 12 13 13 14 12 12 12 12 12 12 13 12 12 11 12 12 4 1 3 10 13 7 8 4 4 7 9 11 13 13 12 12 11 9 7 8 9 7 5 6 6 8 9 9 9 9 9 10 9 9 12 11 10 8 5 4 4 3 5 7 5 2 5 6 4 14 16 16 18 18 15 15 14 13 13 14
13 14 14 14 14 14 14 14 14 14 14 14 14 14 14 14 14 13 12 12 12 12 12 12 11 10 8 6 2 3 6 8 8 10 9 6 5 7 10 11 13 14 12 13 13 11 8 7 8 7 6 7 7 8 9 8 6 7 9 9 9 10 11 12 11 10 8 2 3 2 4 7 6 3 5 8 2 13 16 17 19 19 17 14 13 13 12 13
14 14 14 14 14 15 15 15 15 15 15 15 15 15 14 14 15 14 12 12 12 12 11 9 10 9 7 4 2 2 6 4 8 10 7 6 6 9 10 10 14 15 11 11 13 13 9 8 9 6 7 8 7 7 8 7 6 7 10 10 11 12 11 11 13 10 7 2 2 2 4 7 6 1 3 8 3 11 15 16 18 18 16 14 12 11 11 13
14 15 15 15 15 15 15 15 15 16 16 16 16 15 15 15 16 15 14 13 12 11 8 7 8 7 6 6 1 4 9 5 5 5 6 8 8 10 12 11 14 15 13 10 13 16 15 15 13 5 5 5 6 8 8 8 8 9 11 11 11 11 11 11 13 10 5 3 4 4 8 7 4 4 6 9 7 8 14 15 16 15 14 14 11 9 9 10
15 15 15 15 16 16 16 16 16 16 16 16 16 16 15 15 16 17 16 14 12 10 7 7 6 5 7 5 6 13 15 11 10 9 8 11 7 8 9 12 15 15 15 10 12 21 21 20 16 8 5 3 5 6 6 9 10 10 10 10 11 9 10 11 10 9 5 4 6 7 8 8 5 6 8 10 10 4 10 14 16 14 12 12 10 8 8 9
15 15 16 16 16 16 17 17 17 17 16 17 17 17 16 15 16 17 17 15 11 9 6 5 3 4 6 3 11 21 22 20 19 19 13 11 7 8 8 12 16 16 17 15 17 22 21 21 16 8 7 4 4 3 7 9 7 8 7 6 8 7 7 8 6 7 6 5 7 6 4 7 7 8 9 8 10 8 8 15 15 13 11 10 9 8 8 9
16 16 16 16 16 17 17 17 17 18 17 18 18 17 17 16 16 17 16 14 10 5 2 2 3 3 3 6 17 23 20 20 21 24 21 13 11 12 13 14 17 19 20 21 21 20 18 18 12 5 5 4 4 6 9 9 5 5 6 4 4 4 4 5 5 7 7 6 9 7 4 7 8 9 11 7 10 10 8 15 15 12 11 9 8 9 9 8
17 17 16 16 17 17 17 18 18 19 19 19 18 18 17 16 15 16 15 11 6 4 3 4 4 4 3 9 18 18 11 13 19 23 19 15 13 12 15 16 18 20 20 19 19 18 17 14 7 3 4 3 5 6 6 5 5 3 5 5 4 5 5 6 7 8 9 7 9 8 4 6 7 8 11 10 12 10 11 15 15 13 11 9 8 9 9 8
17 17 17 17 17 17 18 18 19 20 20 20 19 18 17 16 14 14 13 7 4 3 2 3 7 8 3 6 10 11 8 10 15 17 14 14 15 12 15 17 16 16 15 15 16 14 13 9 3 3 3 2 4 4 4 5 5 3 4 4 4 5 5 6 8 10 11 8 9 10 5 4 6 9 11 11 13 9 13 17 15 14 11 10 8 9 10 8
16 16 17 17 18 18 18 18 19 20 21 22 21 19 17 14 13 13 10 4 3 3 5 5 6 6 5 9 10 9 9 13 14 16 15 16 16 16 15 12 10 11 11 12 13 9 7 4 1 2 2 2 3 3 4 5 5 4 4 4 5 6 5 5 6 9 13 11 10 11 9 5 5 10 12 9 13 10 14 17 15 14 11 9 8 9 10 9
16 17 17 17 18 18 18 19 20 20 22 22 21 20 18 14 11 11 7 2 1 2 6 9 7 2 5 9 7 7 10 14 18 18 18 18 17 19 16 9 7 8 7 7 8 6 3 2 2 2 3 4 4 4 5 6 5 5 5 5 5 7 8 8 7 8 12 13 13 11 10 10 9 10 11 7 10 8 13 17 15 14 13 11 9 10 9 8
17 17 17 18 19 19 19 19 20 21 22 23 22 19 14 10 7 6 4 3 2 1 4 5 5 3 4 6 8 13 12 9 18 16 16 18 17 17 17 12 7 6 5 3 4 6 4 2 3 4 5 5 7 8 8 7 7 9 10 7 6 7 9 11 12 12 10 11 14 12 10 13 13 10 11 9 3 3 13 15 13 13 13 11 10 10 10 9
18 18 19 19 19 20 19 19 20 21 21 22 22 16 7 4 2 0 3 5 7 7 8 7 9 7 9 9 11 18 12 8 14 11 14 18 16 12 11 9 5 5 4 4 5 5 5 4 6 6 7 7 8 10 11 11 10 11 11 9 8 7 7 10 13 15 12 8 13 13 11 14 15 10 12 10 1 8 16 15 13 13 13 12 12 12 12 10
19 19 19 19 20 20 19 20 20 20 20 20 18 9 2 3 2 2 3 6 11 14 14 13 13 13 14 13 15 18 11 4 7 8 13 18 15 9 6 6 5 4 5 6 5 4 5 6 8 8 8 9 10 10 11 12 13 12 9 8 9 8 7 9 12 15 11 6 10 12 10 12 12 10 12 9 5 12 17 17 15 16 15 13 15 15 13 10
20 19 20 21 20 21 20 20 20 21 21 18 11 3 6 9 9 11 10 7 10 12 15 17 17 17 18 20 24 20 12 6 7 7 12 17 12 6 5 6 5 4 5 6 5 3 5 7 8 9 9 10 11 11 10 12 12 10 7 6 7 7 7 9 13 15 8 5 9 13 10 8 10 10 12 8 9 12 15 18 17 17 16 15 16 15 13 12
20 19 21 20 21 22 20 20 22 22 20 14 8 8 9 12 12 17 11 4 11 12 12 16 17 16 17 18 22 19 12 9 8 8 13 15 8 7 6 5 7 6 6 7 6 4 4 7 9 10 10 11 11 12 11 9 8 8 6 5 6 8 7 5 11 13 6 3 7 11 7 5 6 8 8 7 6 10 13 16 16 15 17 17 17 15 15 14
20 21 21 21 22 21 19 22 21 15 14 12 13 14 14 15 14 15 7 1 9 12 11 17 15 13 17 17 16 15 11 9 7 8 15 15 7 7 6 5 7 7 7 9 10 9 8 8 10 12 12 12 11 11 10 7 6 7 8 7 6 9 9 5 8 9 4 3 4 8 3 3 4 4 5 6 2 8 12 15 14 12 14 15 15 14 14 13
21 22 21 22 22 21 21 20 12 11 14 10 14 18 18 15 15 11 6 1 6 7 9 13 10 11 20 19 14 12 9 9 8 7 11 16 11 7 6 6 5 7 9 11 11 9 11 11 10 12 13 14 12 9 10 8 5 4 6 8 8 10 11 9 10 9 6 5 2 6 4 4 5 1 4 5 2 5 10 16 15 13 14 14 13 13 11 11
21 21 21 21 20 22 20 10 8 16 16 8 10 19 17 10 11 10 5 1 4 5 6 5 6 9 14 13 11 10 8 8 10 11 10 17 16 8 5 4 3 7 9 10 8 5 9 12 11 12 13 14 12 9 12 10 5 2 4 5 8 11 12 10 10 6 2 3 4 3 5 3 5 4 6 4 5 7 10 16 15 14 14 13 13 12 11 11
21 20 21 20 19 20 12 6 15 18 9 8 14 20 17 15 15 9 3 1 4 5 4 1 2 5 7 10 12 9 6 4 9 13 12 16 17 8 5 5 3 7 7 6 5 3 8 12 12 13 11 11 10 9 10 8 6 4 3 5 10 11 11 9 6 6 3 4 5 1 6 2 3 5 7 4 6 5 10 15 14 14 14 13 14 13 13 14
21 20 20 19 19 15 10 12 17 11 6 10 14 17 18 18 14 6 3 1 5 3 2 0 1 3 3 8 13 8 6 3 5 10 12 19 18 7 6 8 6 8 8 5 5 5 8 11 11 11 8 6 6 6 7 7 4 3 3 7 12 12 12 8 6 5 3 2 5 3 6 3 3 6 6 5 5 4 11 15 15 15 15 15 15 13 13 15
21 21 20 20 19 11 8 13 12 8 10 11 11 16 18 15 9 3 2 1 3 3 2 1 1 3 2 5 8 7 6 5 2 7 10 17 18 8 4 9 9 10 10 6 7 6 6 7 9 9 7 5 4 3 6 5 3 4 6 9 10 11 11 8 6 3 0 2 5 4 4 3 3 6 4 5 6 5 10 13 14 16 16 14 13 12 13 13
22 22 21 20 16 8 5 11 13 11 16 12 12 16 14 9 4 2 0 2 3 3 2 1 0 4 5 5 6 6 7 7 5 5 7 10 12 7 1 4 8 8 9 8 9 9 8 6 6 7 6 4 3 1 2 3 5 5 7 8 8 8 8 7 6 4 3 3 5 4 2 5 2 5 2 3 8 5 10 12 12 14 14 13 12 12 13 13
25 24 22 18 14 8 5 7 9 10 14 12 12 12 8 3 2 2 2 2 4 4 2 1 3 7 8 6 5 5 7 8 6 6 6 7 7 6 1 2 4 4 5 5 6 10 11 8 4 3 6 5 2 3 3 6 9 7 5 5 4 5 5 4 3 4 3 3 5 5 4 5 3 4 2 3 7 1 12 15 16 16 15 13 12 12 12 12
26 24 21 18 15 12 9 7 5 8 10 11 11 6 2 2 1 3 2 3 4 3 2 1 6 7 8 8 7 7 8 7 7 7 6 7 6 5 5 4 3 2 4 4 4 7 8 7 6 5 3 5 4 4 5 6 7 7 5 4 3 2 3 3 2 3 4 3 5 7 6 4 4 2 3 5 6 8 10 14 18 19 16 13 12 12 11 10
25 23 20 17 14 16 15 10 6 7 10 11 7 2 2 2 2 5 4 3 4 3 7 7 6 2 5 6 5 6 6 6 7 6 4 6 6 6 8 9 6 4 3 4 4 4 4 5 7 6 2 3 4 4 4 4 4 6 6 4 4 2 2 3 2 2 3 4 6 7 6 4 0 1 3 7 8 10 14 14 14 14 14 13 12 11 11 10
24 20 15 11 12 14 10 6 3 4 9 8 3 1 2 2 3 4 5 5 7 11 12 11 10 7 5 5 3 3 4 6 7 6 5 5 3 4 6 10 11 7 3 3 4 3 3 5 6 6 3 5 6 6 6 5 5 6 6 4 4 4 4 3 2 3 3 3 4 4 3 3 2 1 2 6 6 8 14 15 13 12 12 12 11 11 10 8
21 14 10 9 10 10 6 5 3 0 6 4 1 1 3 3 3 2 4 5 7 9 10 12 11 7 5 4 7 7 5 4 5 4 4 6 6 5 3 7 11 9 4 3 3 3 3 5 5 8 7 8 9 9 7 6 5 3 3 3 3 4 4 2 2 5 3 1 2 2 0 2 3 4 7 8 5 7 12 14 14 13 11 12 11 9 8 7
17 9 7 8 9 6 6 6 5 3 3 1 0 2 3 3 3 3 4 6 7 8 10 12 9 4 4 3 4 6 4 2 3 3 2 1 3 6 6 5 9 10 7 4 3 3 3 4 5 7 9 10 9 8 7 6 3 2 1 3 5 5 5 3 1 1 4 2 2 0 2 1 2 5 8 9 6 6 9 12 14 12 11 12 10 8 8 7
15 8 7 10 11 9 7 7 9 8 3 1 1 3 3 4 6 6 7 9 11 10 10 8 4 2 3 3 4 4 5 6 4 4 3 1 1 5 6 4 7 11 11 7 3 3 4 5 7 6 7 9 10 9 8 8 6 2 2 4 5 5 3 3 0 1 3 2 2 2 5 2 2 1 3 10 10 5 6 9 11 10 9 10 9 9 8 7
11 7 9 9 6 9 10 10 11 9 2 1 3 4 4 4 7 9 10 10 12 10 8 6 3 1 1 2 6 8 4 5 4 3 1 1 1 1 1 2 6 6 8 10 6 3 3 4 7 6 4 4 5 8 7 7 6 5 4 3 2 4 3 1 3 2 2 2 1 2 4 3 3 1 1 8 11 8 7 7 8 7 7 7 7 9 9 7
5 4 6 0 7 8 8 8 8 4 1 2 3 2 4 6 8 12 13 12 10 8 6 6 5 2 1 2 6 9 8 3 2 2 0 1 2 1 2 3 6 7 7 5 5 5 4 2 4 6 2 4 3 4 6 6 6 5 5 3 2 3 4 2 3 4 4 2 1 1 1 1 1 3 2 7 9 10 8 6 7 7 7 7 6 6 7 7
2 2 2 4 5 3 4 6 4 1 2 3 3 4 6 7 9 11 13 11 8 5 5 6 7 4 3 5 6 7 9 6 2 2 0 0 3 3 3 3 5 10 11 6 2 3 3 4 3 6 4 4 2 3 5 5 5 5 4 3 2 1 3 3 0 1 4 4 2 1 1 1 3 4 2 6 7 8 8 8 7 8 9 8 6 6 5 6
3 2 1 5 4 3 6 6 3 2 3 4 4 6 8 8 8 10 11 9 6 5 6 6 7 5 1 5 6 4 7 6 2 3 1 1 2 2 2 2 4 9 10 6 5 3 2 2 4 3 3 0 3 5 2 2 4 4 5 4 4 2 3 3 1 3 2 4 4 5 2 2 4 3 4 6 7 7 8 9 8 8 9 7 6 6 4 4
3 1 4 9 6 6 6 2 2 3 3 3 5 8 9 8 8 9 11 9 6 4 4 5 7 6 1 3 6 5 5 6 2 3 2 1 3 4 2 2 4 7 5 2 2 2 1 1 2 2 3 3 5 6 4 8 10 4 3 3 4 5 4 3 3 3 1 2 1 4 3 2 4 3 4 7 8 7 8 9 8 7 7 6 5 5 4 4
2 2 6 10 7 6 4 2 3 1 2 4 7 9 9 8 7 8 11 11 6 6 6 6 7 7 4 4 7 8 8 7 1 3 1 0 2 3 3 7 6 5 3 1 3 3 1 2 1 0 2 3 3 5 6 9 9 5 2 3 1 5 6 5 4 4 3 1 1 4 2 3 2 2 5 7 7 8 7 7 8 7 6 6 6 5 5 4
3 3 4 9 10 8 3 1 3 4 4 5 7 8 8 8 6 7 10 11 8 6 5 5 6 8 7 6 7 9 11 6 2 6 2 2 2 0 3 6 7 4 1 1 2 3 2 1 2 2 2 3 3 5 7 7 5 3 3 7 8 3 5 6 3 3 3 3 5 6 2 3 1 3 7 7 8 10 7 4 7 7 5 5 5 5 5 4
3 2 2 5 9 6 2 1 3 4 4 5 6 8 8 7 7 7 8 10 10 7 5 4 6 8 8 7 8 9 10 8 3 2 3 1 2 1 2 3 6 4 3 7 6 3 1 0 2 3 3 3 2 1 1 3 4 3 5 9 10 10 5 5 5 5 2 2 3 5 4 4 3 5 9 7 8 10 6 4 7 8 6 6 6 6 5 5
2 1 1 1 2 1 2 1 3 3 3 4 4 6 7 6 7 8 8 8 10 10 7 6 7 7 7 8 8 8 9 10 8 3 4 2 1 3 2 5 5 4 7 12 8 3 2 2 1 2 4 5 4 2 3 2 3 5 10 13 10 10 7 4 5 3 3 2 3 1 7 10 7 7 9 7 8 9 6 6 9 9 8 8 9 10 9 8
2 1 1 0 1 3 3 3 4 3 3 4 2 4 7 6 5 7 8 6 8 9 8 7 9 9 7 7 6 6 9 9 8 7 4 2 1 2 3 3 3 6 7 8 7 3 4 2 4 5 4 2 5 5 5 5 5 7 11 14 12 11 10 7 5 2 4 5 3 1 8 12 9 7 9 8 8 9 7 7 10 9 9 10 11 14 14 12
2 0 1 1 0 1 1 2 3 3 5 4 2 2 5 6 5 5 6 6 6 8 6 5 10 12 11 8 4 5 8 7 7 7 6 5 4 4 3 2 2 8 8 5 5 3 4 1 4 3 5 4 4 8 7 5 5 7 10 11 11 12 11 9 3 1 5 6 3 4 7 10 7 6 9 7 6 8 9 9 10 10 11 12 13 15 15 15
2 1 2 1 1 2 4 1 1 4 6 5 4 4 5 7 8 6 5 5 5 7 6 5 8 11 11 9 5 4 6 5 5 6 5 5 5 3 1 1 2 7 7 5 4 2 4 1 5 4 3 4 1 7 9 6 3 5 9 9 9 10 10 10 6 5 10 10 9 12 11 8 6 5 8 7 4 5 9 10 11 12 13 13 14 15 15 15
2 2 2 2 3 3 4 3 3 4 4 4 4 4 5 7 8 7 6 4 3 5 8 9 10 8 8 9 6 5 6 5 5 5 4 4 5 3 1 0 1 3 4 3 4 5 4 2 5 3 4 5 4 6 9 8 4 4 8 11 10 9 8 8 7 7 10 9 11 15 13 8 6 6 8 9 2 2 9 12 12 12 13 14 14 14 14 14
7 6 5 2 4 4 1 3 4 4 3 3 1 2 4 5 6 6 6 4 5 6 8 10 10 7 6 8 6 5 7 8 8 7 6 4 4 5 3 1 3 4 4 1 2 4 3 1 4 4 1 0 4 3 3 7 6 6 9 13 13 7 3 4 4 5 4 7 11 13 9 5 7 7 8 10 5 2 9 14 13 12 13 13 13 13 13 14
12 10 9 3 4 4 2 3 5 4 1 0 2 2 2 2 4 4 3 5 6 7 8 9 8 6 4 5 5 6 8 9 10 9 6 5 6 7 6 4 4 5 5 3 2 3 2 2 2 4 2 3 6 7 2 4 5 5 5 8 10 6 1 5 5 6 4 4 7 8 5 4 8 10 9 10 8 6 7 10 10 12 14 14 14 14 13 12
Wind_Direction
353 352 352 350 348 347 345 342 339 335 333 328 323 320 316 316 315 315 314 312 313 313 314 315 315 318 316 318 319 320 322 317 314 299 263 262 267 248 230 238 267 264 236 226 218 215 201 202 224 236 244 251 239 238 249 252 238 215 202 227 247 254 255 260 261 266 304 319 10 3 11 5 353 48 13 61 95 90 82 75 76 77 83 103 120 127 125 125
352 352 352 351 350 348 347 345 342 339 335 331 328 323 319 316 313 311 308 307 308 308 313 313 315 317 315 319 322 326 326 316 301 280 267 269 255 239 243 245 250 254 227 208 211 214 201 194 214 225 233 242 241 231 222 232 234 219 204 221 229 244 255 263 274 288 304 325 6 358 16 20 349 38 36 357 102 103 95 91 95 96 98 108 122 124 121 125
351 351 351 350 351 348 348 345 343 341 336 335 330 326 323 318 314 309 306 305 305 307 310 310 314 316 318 322 326 333 325 313 294 270 283 298 242 231 231 238 244 244 233 212 203 211 215 205 205 213 224 235 244 229 212 214 229 221 210 234 241 240 257 264 269 281 286 314 32 353 8 57 341 311 150 71 79 100 109 117 111 112 119 122 129 129 127 130
351 350 351 350 349 347 346 344 343 341 337 337 333 331 326 319 315 309 307 305 305 307 308 311 315 316 321 323 330 337 321 308 282 248 300 2 237 219 215 225 235 238 237 219 205 215 229 224 209 210 223 229 238 239 231 215 212 218 203 225 252 255 265 265 267 284 300 10 54 336 358 11 329 329 87 82 89 109 129 135 126 128 132 134 139 138 135 134
352 351 351 349 348 346 345 344 342 341 339 338 335 333 327 321 315 310 308 305 306 307 308 311 314 319 322 325 336 339 328 327 133 211 38 36 146 192 206 216 224 233 235 215 211 232 246 249 229 213 220 232 233 239 244 226 212 234 228 223 239 253 266 271 281 303 325 27 39 2 350 346 330 347 11 40 137 147 139 134 133 136 138 140 143 141 137 135
353 352 351 348 347 345 344 343 341 340 338 337 335 333 328 323 315 311 308 305 305 303 307 309 313 322 323 329 339 334 337 281 310 320 8 65 84 150 193 210 221 230 224 206 215 243 252 259 249 226 214 228 234 236 246 232 215 235 254 236 233 239 253 271 281 295 352 18 31 358 317 335 357 343 330 324 159 145 132 130 133 137 140 138 135 139 140 143
352 352 349 347 346 344 344 341 339 338 336 335 333 331 327 322 315 311 306 304 303 301 305 308 314 323 329 341 350 267 227 260 290 291 216 140 95 145 178 202 215 213 201 198 212 234 243 251 247 234 218 221 232 241 252 249 232 232 247 247 244 245 250 265 270 262 61 347 7 348 302 316 345 313 320 334 109 129 129 127 128 131 135 134 135 144 142 148
351 350 349 348 346 344 343 340 338 336 333 332 329 328 326 322 318 309 306 305 302 303 305 307 316 326 337 351 4 217 240 258 274 241 188 172 134 146 166 187 201 196 190 199 210 220 236 250 242 232 234 231 231 237 249 260 252 238 240 243 247 253 259 266 269 267 244 210 185 192 271 285 287 329 319 312 113 132 134 129 128 129 135 137 138 145 142 147
350 350 348 347 345 343 341 338 337 335 332 331 327 326 324 324 323 314 308 306 304 305 303 307 314 323 340 345 333 300 261 246 235 198 179 178 162 160 170 180 191 188 189 207 219 229 234 250 244 227 234 246 247 246 245 253 257 248 245 241 241 247 257 268 270 272 271 216 129 177 236 268 288 356 311 286 176 139 139 138 138 136 140 140 140 146 142 140
350 349 346 345 344 341 339 337 335 333 331 329 326 324 322 323 324 319 312 306 305 304 303 311 312 321 333 295 266 280 262 220 177 184 185 188 177 176 178 178 187 184 192 213 219 234 240 247 255 234 237 258 259 261 257 248 257 265 263 253 240 241 245 257 263 266 272 243 83 332 263 255 264 235 267 276 222 146 146 150 146 140 140 140 142 145 136 135
349 347 345 344 342 340 337 335 333 331 329 326 324 321 319 320 321 320 315 305 303 302 303 313 312 321 316 289 251 232 250 232 181 195 194 192 189 188 182 179 190 188 197 217 221 233 242 250 261 255 231 256 266 270 273 267 276 276 278 279 258 249 249 247 255 265 273 218 168 232 259 257 243 207 225 258 254 163 157 158 142 134 134 135 134 129 125 121
349 346 344 342 340 338 336 333 331 329 327 324 322 319 318 319 318 318 313 305 299 296 295 302 311 318 303 285 230 241 257 266 266 261 203 176 187 210 195 187 195 194 199 215 231 232 237 246 257 263 241 236 249 260 277 274 276 275 280 288 279 274 261 245 247 255 247 196 178 201 244 256 241 227 226 238 258 219 147 146 135 126 127 127 126 123 118 105
348 345 343 341 338 336 335 333 329 327 325 322 320 319 320 318 317 316 312 306 299 292 288 287 292 302 300 261 242 259 276 282 283 284 249 189 175 216 217 208 206 202 204 216 234 238 241 245 247 255 263 265 252 286 311 287 265 267 274 274 279 291 271 244 236 249 242 189 181 192 226 248 239 234 235 231 244 245 133 132 134 127 127 129 131 132 116 102
345 344 341 339 337 335 334 331 329 327 325 323 322 322 322 320 318 315 309 308 307 299 274 284 295 293 268 248 273 282 285 277 273 279 262 206 181 209 218 224 219 213 213 221 239 255 265 265 261 270 282 287 297 317 317 305 290 279 282 279 268 270 278 262 234 233 241 204 179 186 213 243 238 227 232 231 235 232 144 131 137 134 136 139 142 134 116 105
342 342 339 337 335 333 331 330 329 326 326 325 324 325 322 317 314 313 314 317 316 284 263 296 261 238 281 268 283 298 292 264 252 258 253 206 195 211 211 221 228 225 222 229 247 263 277 282 278 264 274 298 310 305 303 300 295 262 246 268 263 239 260 271 253 227 226 217 186 192 218 236 239 237 229 221 235 225 141 137 140 138 141 141 145 128 115 111
340 340 337 336 333 332 330 328 328 326 327 326 324 324 319 313 309 310 316 310 292 256 221 287 224 203 282 274 287 305 276 246 235 239 239 211 213 220 212 215 226 232 232 242 255 263 280 295 288 251 255 261 272 274 290 300 293 264 222 234 243 242 244 246 249 236 231 224 195 202 216 227 233 248 241 219 229 213 135 141 142 137 143 140 138 122 116 115
339 338 335 334 331 330 328 326 327 326 327 326 325 322 314 310 299 301 312 295 289 244 208 266 250 204 248 272 300 305 246 223 216 223 228 217 222 229 222 210 207 223 233 244 255 260 274 282 261 291 271 232 239 223 257 268 264 276 258 236 241 245 244 242 240 233 229 220 208 206 205 224 230 239 248 223 219 205 138 144 145 137 142 138 132 121 118 122
338 337 334 332 329 327 326 326 326 326 326 325 325 321 313 304 281 285 303 292 338 256 243 271 283 243 245 260 269 263 248 225 205 208 218 212 218 233 234 222 191 200 221 237 246 235 231 235 198 243 248 228 230 209 218 228 222 245 251 235 237 237 239 249 250 239 225 210 211 206 197 224 237 242 257 235 215 200 144 143 145 139 137 134 128 119 116 115
336 336 333 330 327 325 324 325 324 324 325 323 325 324 313 299 276 267 265 228 154 193 260 240 209 202 267 256 239 261 277 213 187 197 209 198 203 228 241 240 200 181 209 208 213 208 187 220 222 219 234 222 217 218 227 237 228 237 248 238 224 225 231 238 243 248 237 204 203 201 186 210 227 239 253 254 260 159 145 140 137 135 132 131 125 117 114 109
335 333 330 328 326 324 323 323 322 323 326 327 334 338 324 320 335 229 221 218 208 229 255 226 195 220 266 276 275 279 282 165 167 198 201 186 187 211 237 241 199 178 216 198 201 208 177 200 226 218 223 223 225 225 233 249 250 247 256 259 253 248 238 236 239 241 236 204 200 198 180 200 218 226 239 252 357 123 143 137 134 137 136 136 131 125 123 126
334 332 330 327 324 323 322 321 319 321 323 323 331 340 299 298 296 294 295 239 219 221 242 242 222 230 245 256 271 279 284 192 178 207 191 177 179 193 213 218 202 197 216 218 224 210 185 212 227 223 225 229 236 231 224 239 252 257 263 272 275 275 262 254 253 244 227 196 196 189 174 200 213 216 235 237 138 140 146 141 146 146 140 138 134 130 131 145
333 331 329 327 324 323 323 320 317 318 316 309 307 266 256 282 279 292 305 284 254 231 235 245 238 241 243 247 257 264 279 256 211 216 179 166 173 187 186 192 200 218 206 215 244 215 204 231 230 223 227 232 239 240 230 229 242 256 264 274 277 277 284 286 278 263 232 180 187 182 180 207 211 210 229 218 161 159 157 151 152 146 138 139 138 134 139 154
332 330 329 327 324 324 324 321 317 314 306 287 249 220 265 304 308 302 301 295 291 270 241 241 235 239 240 243 249 247 256 248 218 217 183 166 178 190 190 195 197 223 213 200 221 220 221 232 222 222 230 234 238 242 240 232 237 243 238 256 268 266 275 286 285 277 247 166 160 165 177 227 224 208 228 236 173 158 158 150 147 144 141 143 141 140 148 153
331 331 329 326 325 326 326 322 318 320 314 282 251 258 286 302 302 307 315 259 288 282 250 238 231 233 234 230 227 223 238 242 225 212 180 170 181 180 196 218 198 219 228 209 210 218 243 240 213 215 225 233 239 241 241 230 232 238 225 230 251 264 265 270 300 311 338 24 103 121 101 303 265 206 234 267 186 145 147 143 143 138 133 133 132 142 152 144
331 330 328 327 327 326 327 325 320 336 331 283 262 295 313 300 291 321 359 272 270 280 251 231 218 230 230 219 205 200 217 230 228 226 181 173 178 174 194 218 206 218 224 223 219 217 240 242 216 210 218 228 235 238 239 226 220 253 237 228 242 269 279 293 316 339 10 346 358 97 90 290 295 261 248 282 237 161 139 139 144 131 127 130 132 146 143 120
330 328 328 327 327 329 333 327 314 331 325 279 294 328 344 343 331 351 20 300 275 265 240 198 176 210 217 200 188 191 209 223 213 224 209 179 180 187 196 204 212 221 221 225 228 215 230 234 225 217 213 218 224 232 235 218 189 235 246 242 254 267 274 284 302 323 11 288 280 94 116 247 309 304 262 258 207 194 138 137 143 130 133 137 138 148 131 117
329 327 328 325 327 334 337 310 315 328 316 294 331 343 350 359 352 356 45 3 283 245 210 164 165 184 182 173 174 177 206 212 182 211 216 179 178 191 203 208 208 220 230 230 228 216 216 224 231 228 218 213 217 226 220 189 175 222 237 274 276 270 265 262 270 279 251 226 259 108 116 160 301 279 267 247 204 186 122 135 139 129 137 140 144 148 131 132
327 326 326 320 322 322 296 289 309 317 297 307 335 342 340 344 342 352 70 71 292 278 167 218 193 171 183 175 168 171 216 223 161 201 201 174 176 179 199 224 234 226 228 224 233 230 210 214 226 236 240 227 219 207 180 156 177 227 198 243 266 270 266 250 229 253 263 222 254 226 125 114 277 267 283 275 228 175 130 140 138 134 142 146 150 146 133 138
326 326 323 320 323 323 285 271 272 293 320 327 342 337 331 335 339 16 89 227 291 315 162 177 156 179 210 170 166 181 216 245 227 195 175 168 183 191 198 223 242 255 258 254 255 247 221 209 211 228 247 242 228 177 150 147 192 213 206 230 254 267 273 261 219 207 148 206 234 231 148 117 274 277 314 303 260 200 151 147 142 142 145 147 146 136 131 136
328 326 325 321 320 344 345 269 258 312 336 332 335 327 319 326 360 82 206 263 285 285 169 105 95 181 193 183 179 188 204 244 259 190 152 154 187 206 233 226 234 258 271 269 266 261 252 239 214 216 221 234 291 327 158 201 226 216 211 228 250 265 274 267 224 151 107 237 241 252 167 123 253 288 30 315 275 213 154 146 139 139 140 141 138 130 133 138
328 326 325 316 301 306 329 270 272 338 346 337 336 327 317 334 66 136 218 275 286 265 160 128 198 177 184 195 192 187 202 238 253 215 173 144 174 203 219 253 242 256 274 274 271 265 255 246 257 241 189 175 236 282 252 234 233 230 213 208 235 276 275 266 243 144 137 246 235 225 185 137 211 270 51 335 300 137 142 148 141 139 141 141 137 132 134 140
326 326 319 305 288 270 251 246 295 353 354 346 341 330 356 69 160 223 255 315 288 226 109 280 224 186 183 195 205 196 190 221 243 230 193 154 166 193 185 200 204 214 274 282 273 272 254 226 240 259 204 150 160 225 259 253 234 227 221 194 190 283 278 257 255 183 186 240 230 207 191 177 204 226 56 44 22 57 110 139 140 140 143 139 132 127 131 139
325 323 313 300 283 260 252 264 305 353 352 343 334 329 84 101 216 221 230 279 279 307 349 320 282 250 194 191 219 216 186 203 227 218 187 162 175 191 190 205 211 187 218 247 253 271 270 247 241 242 227 133 159 205 226 241 238 220 210 174 163 190 237 237 242 213 210 235 238 224 207 209 199 50 54 69 67 67 87 107 119 126 127 123 122 123 132 142
326 321 308 296 277 262 260 270 274 342 333 327 336 50 111 194 242 234 230 249 276 300 313 304 301 301 242 195 184 226 210 214 217 197 167 154 192 219 194 203 219 216 202 236 247 234 242 258 244 235 215 152 187 226 222 230 246 217 190 155 172 178 168 201 192 178 221 239 254 264 226 189 151 153 70 66 71 82 95 103 103 101 102 105 110 119 131 138
330 322 301 285 274 262 235 213 181 330 307 308 36 128 179 214 263 263 254 253 265 284 299 305 306 300 274 225 180 192 210 227 241 220 180 173 194 221 205 197 212 217 211 216 234 244 253 252 228 223 213 174 190 223 231 258 284 252 175 145 211 200 156 173 185 164 169 71 341 309 240 173 146 116 71 50 54 99 109 111 109 107 110 112 114 121 129 128
334 329 295 275 266 244 189 173 156 185 263 313 67 228 213 236 258 256 284 283 279 297 317 318 312 310 316 302 205 202 187 182 285 295 254 195 185 212 225 207 200 205 207 202 220 231 235 264 266 234 214 197 194 204 210 222 246 282 256 205 226 210 146 124 281 196 110 85 303 118 105 347 62 82 71 64 66 101 112 113 116 121 126 122 118 124 132 133
334 328 278 265 258 235 199 173 169 184 214 38 213 243 247 255 259 266 287 297 299 310 321 316 319 358 330 323 304 270 183 171 206 214 209 337 282 240 245 239 213 207 206 208 243 258 221 254 287 270 231 216 197 192 214 212 172 145 251 238 236 225 163 112 189 304 84 121 278 117 129 125 62 48 79 89 94 107 107 105 113 121 123 119 114 122 130 132
328 313 281 272 240 203 201 194 182 176 168 303 254 265 272 262 269 278 287 298 303 312 316 301 297 5 319 307 315 304 252 191 185 187 200 8 306 238 24 303 263 240 219 214 227 263 234 250 286 279 256 256 207 181 213 240 201 173 197 202 171 187 198 152 171 196 151 169 250 136 141 112 75 257 198 108 113 125 118 106 106 104 103 102 104 119 128 127
311 295 291 295 130 152 181 187 181 171 152 249 250 265 269 261 263 270 274 280 285 289 290 286 291 312 320 305 309 313 309 288 144 133 27 11 281 269 45 326 296 323 319 256 221 227 210 189 287 290 318 356 313 193 193 240 235 216 215 190 140 157 175 179 172 170 165 165 162 124 112 46 306 266 200 128 120 122 122 111 95 84 78 74 77 95 115 123
251 263 284 125 134 175 175 157 152 152 201 225 240 249 261 268 265 261 259 262 271 277 268 287 311 319 345 342 330 327 324 327 69 101 133 202 269 296 360 348 318 322 324 336 347 254 225 157 219 286 341 37 311 236 189 197 203 204 218 201 157 113 163 167 234 185 155 135 135 158 352 294 274 309 54 105 107 110 109 92 79 78 77 76 79 85 103 123
257 303 199 153 157 143 126 132 146 176 218 239 249 253 262 273 276 279 282 279 271 269 271 287 296 279 293 354 335 323 317 320 48 97 84 311 271 297 333 319 328 323 319 350 18 340 291 182 186 251 318 341 268 283 299 312 265 201 179 185 172 140 137 141 283 269 149 115 143 149 136 251 272 332 52 82 91 98 95 86 80 81 84 83 84 88 101 111
244 319 161 166 165 138 128 153 221 194 215 248 256 264 276 279 280 301 314 302 273 275 309 322 305 294 335 354 320 313 307 308 2 112 128 140 212 221 262 327 350 340 328 335 344 321 246 203 151 180 227 230 256 281 336 356 330 293 184 181 171 148 120 125 228 253 54 55 113 109 114 234 286 338 72 84 89 92 86 88 85 77 81 78 71 78 71 61
244 309 159 164 177 171 161 311 311 278 272 279 278 285 294 292 298 324 327 318 325 354 355 343 327 330 357 358 336 324 302 297 23 105 129 221 225 232 354 10 357 340 344 352 318 313 315 360 12 199 275 300 306 324 358 15 3 342 327 342 282 184 152 143 193 186 117 126 134 77 87 227 289 16 85 86 87 86 77 92 97 83 79 73 64 68 67 52
292 291 169 175 195 191 159 4 319 306 308 317 318 317 314 313 332 345 332 325 332 343 333 325 336 341 342 350 345 319 302 303 95 110 119 242 249 341 32 3 338 326 16 354 330 325 322 5 45 52 19 333 335 360 352 354 13 358 325 354 352 342 120 117 114 108 116 189 154 124 160 221 210 88 92 83 82 78 63 82 103 95 95 93 83 79 78 67
301 272 162 181 198 192 124 29 313 312 321 339 334 323 324 333 337 338 340 337 332 331 323 319 335 336 331 340 332 311 313 325 327 121 126 189 293 344 96 34 354 353 348 334 342 21 5 6 104 112 134 172 192 128 267 310 333 330 343 7 11 9 44 114 104 78 100 218 125 128 164 160 129 110 101 88 82 80 65 81 98 91 92 99 99 92 73 56
303 278 30 141 193 83 59 25 353 339 334 355 340 325 344 358 335 337 0 357 347 350 341 327 341 341 331 338 333 318 323 331 337 22 80 91 319 303 45 50 3 334 346 340 338 45 52 342 359 115 156 168 162 143 132 86 360 358 10 12 16 16 22 85 102 94 159 136 44 95 155 141 140 133 117 108 106 104 101 106 103 96 90 83 81 80 69 56
285 293 46 200 341 10 22 11 7 360 345 352 344 335 355 3 346 354 5 349 343 354 347 348 3 357 343 347 344 333 333 343 14 34 27 28 355 309 32 52 314 325 0 347 330 31 73 326 319 4 4 170 138 98 80 68 27 24 35 27 23 24 24 44 76 121 136 102 31 253 143 132 141 142 127 126 128 129 132 117 107 102 96 87 79 79 77 73
262 153 76 168 81 13 6 342 344 26 17 356 346 4 2 5 11 11 352 329 339 353 344 353 8 3 359 3 4 353 352 6 29 17 359 6 352 336 26 71 1 13 16 341 324 45 101 258 287 359 350 324 97 87 80 75 18 22 49 45 34 32 25 20 16 137 116 112 142 147 115 116 128 122 117 122 125 130 134 124 113 106 98 93 86 81 78 73
339 18 1 24 68 196 187 178 15 49 36 359 343 7 7 10 16 5 350 353 356 351 346 358 12 8 359 359 14 19 8 15 10 347 343 352 327 308 42 43 20 35 25 338 324 44 87 301 261 193 204 267 167 106 94 87 32 22 46 46 46 49 29 4 359 64 95 108 122 112 99 95 100 100 110 117 126 137 133 122 114 107 99 93 87 80 77 70
1 336 340 353 333 259 193 133 79 75 46 13 3 6 5 15 14 350 345 15 25 356 0 5 9 10 354 353 17 26 360 350 335 309 298 325 312 282 156 146 221 89 66 2 343 19 46 306 278 237 187 221 210 141 121 121 133 83 47 25 25 44 34 7 4 50 81 98 107 104 100 101 125 141 132 126 136 152 125 114 106 104 100 96 89 82 79 74
351 339 354 355 305 295 215 111 90 101 65 29 42 20 7 11 10 347 333 360 27 17 6 355 351 356 352 355 10 1 335 323 306 291 284 283 288 291 298 204 170 143 124 98 14 38 48 339 332 359 63 275 341 348 142 142 132 84 45 14 359 3 44 38 4 8 74 116 112 103 103 117 129 132 128 124 118 102 115 113 109 107 100 93 89 82 76 72
356 347 358 1 270 301 26 78 58 60 49 306 187 131 70 360 352 15 351 342 7 10 355 342 340 344 342 346 352 326 306 300 292 286 283 265 263 279 287 265 221 162 141 135 121 112 112 109 37 16 36 18 350 343 1 104 90 49 24 351 326 304 120 82 41 13 31 103 111 110 135 149 125 122 125 121 108 85 91 97 101 103 93 82 79 76 72 68